Location: Newark
(45.2500°N, 7.5833°E)
Time: 06:42:41
(UTC+00:00)

SR - Pass Details

Date: 29 January 2020
Orbit: 576 x 880 km, 66.7° (Epoch: 27 February)

Event Time Altitude Azimuth Distance (km) Brightness Sun altitude
Exits shadow 06:12:09 - 320° (NW) 2,908 ? -7.7°
Reaches altitude 10° 06:13:32 10° 316° (NW) 2,399 ? -7.5°
Maximum altitude 06:18:41 42° 247° (WSW) 1,080 ? -6.6°
Drops below altitude 10° 06:23:25 10° 177° (S) 2,195 ? -5.8°
Sets 06:25:44 0° 170° (S) 3,059 ? -5.5°
